{"data":{"norad_id":59099,"epoch":"2026-09-22T04:39:20.297952Z","epoch_age_seconds":108849,"freshness":"FRESH","line1":"1 59099U 24043B   26265.19398493  .00004208  00000+0  26581-3 0  9990","line2":"2 59099  97.8734  46.2665 0007163  15.5822 344.5625 15.09616579139721","mean_motion":15.09616579,"eccentricity":0.0007163,"inclination_deg":97.8734,"raan_deg":46.2665,"arg_perigee_deg":15.5822,"mean_anomaly_deg":344.5625,"bstar":0.00026581,"rev_number":13972,"period_min":95.388459561956,"perigee_km":532.41713708261,"apogee_km":542.32429343549,"semimajor_km":6915.507715259,"source":"CELESTRAK","updated_at":"2026-09-23T09:00:19.172948Z"}}